User: anonymous   Login
Location: Bishop�s Knoyle
(51.0728°N, 2.1714°W)
Time: 22:37:22
(UTC+00:00)
Language:

Cosmos 2278 Rocket - Orbit

View from above orbital plane
View from above orbital plane
View from above satellite
View from above satellite

Ground track
Ground track

The orbit data is extracted from the following two-line orbital elements,

1 23088U 94023B   20328.28277652 -.00000282  00000-0 -12197-3 0  9990
2 23088  70.9976 167.7495 0004441 320.4746  39.6052 14.14687877373044
Epoch (UTC): 23 November 2020 06:47:11
Eccentricity: 0.0004441
inclination: 70.9976°
perigee height: 840 km
apogee height: 846 km
right ascension of ascending node: 167.7495°
argument of perigee: 320.4746°
revolutions per day: 14.14687877
mean anomaly at epoch: 39.6052°
orbit number at epoch: 37304

The dashed part of the orbit path shows where the satellite is in the earth's shadow,  

DLR